Theta_e
300 300 299 299 299 299 299 299 299 298 297 297 297 297 297 297 296 296 296 296 296 296 296 295 295 295 295 295 294 294 294 294 294 295 295 295 295 296 296 296 298 305 310
299 299 299 299 298 298 297 297 297 297 297 297 297 296 297 296 296 296 296 296 295 295 294 294 293 293 293 292 293 292 292 292 291 292 292 293 293 293 294 295 296 295 296
299 298 298 297 297 297 297 296 296 296 296 296 296 296 296 295 295 294 294 294 293 293 292 292 291 291 290 290 290 289 289 289 288 288 289 288 289 290 291 292 292 294 296
297 296 296 296 296 296 296 295 295 296 296 295 294 295 294 294 293 293 292 292 291 290 289 288 288 288 288 288 288 288 288 288 288 288 289 288 288 288 288 289 291 290 290
296 298 300 299 297 296 295 294 294 294 294 294 293 293 293 292 291 291 290 289 289 288 288 288 287 287 287 287 286 286 286 286 286 286 286 287 287 287 286 287 288 289 289
300 298 297 297 295 293 293 293 293 292 292 291 292 291 291 290 289 288 288 287 287 287 287 287 287 286 286 286 286 285 284 284 284 284 284 284 284 284 285 285 286 286 288
296 295 295 294 292 291 292 291 291 291 291 290 289 288 288 288 287 287 287 286 286 286 286 285 285 285 284 285 285 285 284 283 282 282 282 283 283 283 282 283 286 287 287
295 293 292 292 291 290 290 290 290 289 289 287 286 286 286 286 285 286 286 285 285 285 284 284 283 282 282 283 283 283 283 282 282 281 280 281 281 281 281 282 284 286 288
292 291 290 291 289 289 289 288 288 287 287 285 285 285 285 284 284 284 284 284 284 284 283 282 281 281 281 281 282 281 280 279 279 279 279 280 281 281 280 281 282 283 285
292 292 291 289 288 288 287 287 286 286 285 284 284 284 283 283 282 282 283 283 282 282 282 281 281 281 280 279 278 277 277 277 277 278 278 279 278 279 280 280 279 278 280
296 293 289 286 286 286 286 284 285 284 283 283 282 282 282 282 281 280 280 281 281 280 280 280 279 279 278 277 276 276 275 276 276 276 276 276 276 276 276 277 278 277 278
292 289 286 285 285 284 284 284 283 282 282 282 282 281 280 280 279 279 279 279 279 278 277 277 276 276 275 275 275 275 275 275 275 275 275 275 274 274 274 274 275 276 277
288 285 284 284 282 283 283 281 281 281 281 280 280 279 279 279 278 278 278 278 277 277 277 276 275 274 274 274 274 273 273 273 273 273 273 273 272 272 273 273 274 275 277
283 283 283 282 281 281 281 280 280 279 279 279 279 278 278 278 277 276 277 277 277 277 276 275 274 274 274 273 273 272 271 271 271 271 271 272 271 272 271 271 272 272 274
282 282 281 281 281 279 279 278 278 278 278 277 277 277 277 276 276 275 275 276 275 275 274 274 274 274 273 273 272 271 270 270 270 269 270 270 270 270 270 269 269 270 270
280 280 280 280 279 278 277 277 276 276 276 276 275 275 275 274 274 273 274 274 273 272 273 272 272 272 272 271 270 269 269 268 268 268 268 267 268 267 268 268 267 267 268
280 279 279 278 277 276 276 276 276 275 275 274 274 274 273 273 273 272 272 272 271 271 271 271 271 271 270 270 269 268 268 267 267 266 266 266 266 266 266 266 266 266 267
277 277 276 276 276 276 276 275 275 274 274 274 273 273 272 272 272 271 271 271 270 270 271 271 270 270 269 268 268 267 266 266 265 265 265 264 265 265 265 265 266 266 266
276 275 275 275 275 275 274 274 274 274 274 273 273 272 272 271 271 270 270 270 270 270 270 269 269 268 268 267 267 266 266 265 264 264 263 263 264 264 265 265 265 265 265
275 275 274 274 273 273 273 273 273 273 273 273 272 272 271 271 271 271 270 270 269 269 269 269 268 268 267 266 266 265 265 264 264 263 263 263 263 264 264 265 265 265 264
274 274 273 273 273 273 273 272 272 272 272 271 271 271 270 270 269 269 269 269 269 268 268 267 267 267 266 265 265 264 264 264 263 263 263 263 263 263 264 265 265 265 264
273 273 272 272 272 272 272 272 271 271 271 271 270 270 269 269 269 268 268 268 267 267 266 266 266 266 265 264 264 264 263 263 262 262 262 262 262 263 264 265 265 264 264
272 272 272 272 272 271 271 271 271 270 270 270 269 269 269 268 268 268 267 267 267 267 266 266 266 265 265 264 264 263 263 262 262 262 262 262 263 263 264 264 264 264 264
271 271 271 271 271 270 270 270 270 269 269 269 268 268 268 267 267 267 267 266 266 266 266 265 265 265 264 264 264 263 263 262 262 262 262 262 263 264 264 264 264 264 264
271 271 270 270 270 270 269 269 269 268 268 268 268 267 267 267 267 267 266 266 266 265 265 265 265 264 264 264 263 263 262 262 262 262 262 263 263 263 263 264 264 265 265
270 270 270 269 269 268 268 268 268 268 267 267 267 267 267 266 266 266 265 265 265 265 265 265 265 264 264 263 263 263 263 263 263 263 262 262 262 264 264 265 265 265 265
Wind_Speed
7 7 6 6 5 5 4 3 3 2 2 2 4 5 7 8 8 9 11 12 14 15 15 16 17 18 19 20 22 23 23 25 33 41 41 41 42 42 40 38 39 44 47
8 7 6 5 5 4 3 3 3 4 4 3 4 6 7 7 9 10 12 14 15 16 17 18 20 21 23 24 25 26 28 28 34 43 43 45 43 43 43 43 41 38 40
11 9 8 7 6 5 5 5 5 4 4 4 4 4 4 6 8 11 11 12 14 16 18 20 22 25 28 32 33 34 35 37 39 43 49 46 47 49 52 48 49 46 42
13 11 8 7 6 7 7 8 8 7 7 5 3 2 2 5 9 11 12 14 17 20 21 23 24 27 29 31 33 35 37 40 42 44 47 50 47 46 46 51 59 55 55
15 13 13 12 11 11 11 10 8 7 6 4 2 1 2 6 10 12 15 16 19 20 21 23 25 26 27 29 32 34 35 37 40 42 45 48 49 51 47 45 48 50 58
19 17 15 15 14 13 11 10 9 7 5 4 2 2 5 7 11 14 16 17 19 19 21 21 22 24 25 26 27 27 29 32 35 36 37 41 44 45 46 43 46 48 53
19 18 16 14 12 12 11 10 9 7 4 2 1 3 5 8 11 13 15 15 16 18 19 21 21 22 25 27 28 28 28 27 28 30 34 36 42 42 42 46 45 46 50
22 18 16 15 15 14 12 11 9 7 4 1 1 3 5 7 10 12 14 15 16 17 18 20 22 23 26 29 32 31 31 31 31 32 32 35 35 36 33 33 39 43 49
21 19 17 17 15 14 12 11 9 6 4 2 1 3 5 7 9 13 15 16 17 17 18 19 22 24 27 29 31 32 33 34 34 34 34 34 33 33 32 36 37 39 48
24 21 19 18 16 14 12 10 9 6 4 3 3 3 5 8 11 13 16 17 18 18 18 19 21 24 26 27 29 31 34 35 38 40 39 37 36 37 35 32 35 39 42
25 22 18 17 16 15 13 10 8 7 6 4 4 5 7 8 10 14 16 18 19 20 21 21 22 24 25 25 26 27 29 33 36 38 39 39 39 39 39 38 35 34 40
21 16 18 16 16 14 12 10 9 8 6 5 5 6 7 9 11 14 16 18 18 20 21 22 23 24 24 25 26 26 27 30 33 36 39 41 43 43 43 42 41 41 38
17 19 19 17 15 13 12 10 9 8 7 6 6 6 8 10 11 14 16 18 19 20 21 22 23 24 25 26 27 27 28 30 32 36 38 40 42 44 45 45 43 43 45
20 20 19 16 14 12 11 10 8 7 6 7 8 8 9 11 12 15 18 19 21 22 23 24 25 25 26 27 28 28 28 29 31 33 36 38 40 43 44 45 48 49 51
21 20 18 16 13 12 10 9 8 8 7 8 9 9 10 12 13 16 18 20 21 23 24 24 26 27 29 30 31 31 30 31 32 33 35 38 40 43 45 45 45 47 48
19 18 17 15 13 12 11 10 9 8 8 8 9 10 11 13 15 16 18 19 19 22 24 26 27 28 29 31 33 34 34 33 34 35 36 37 40 43 46 46 45 45 47
19 17 15 14 13 12 11 10 9 8 8 8 9 10 12 13 15 17 18 19 19 22 23 24 26 27 29 31 32 34 35 34 34 35 36 38 39 41 44 46 47 46 47
17 15 14 13 12 11 11 10 9 9 8 8 10 11 12 13 15 17 19 20 19 20 23 24 26 27 29 31 32 33 34 34 34 34 35 36 37 39 43 42 44 45 44
15 14 13 12 12 12 11 10 10 10 9 9 10 12 13 14 14 16 18 20 22 23 24 25 26 27 28 30 31 32 33 33 33 34 35 35 36 37 38 39 42 42 40
12 12 13 12 11 11 11 11 11 10 10 11 11 13 15 16 15 15 17 20 21 23 24 26 26 26 28 28 30 31 32 32 32 33 35 35 34 34 34 38 39 42 40
14 13 12 12 11 11 11 11 11 12 12 12 12 14 17 20 19 20 20 20 22 24 26 27 28 29 29 29 29 30 30 31 31 33 35 34 33 34 32 34 36 40 40
13 12 12 12 12 12 12 13 13 13 14 15 14 14 17 18 19 21 22 22 23 24 26 28 29 29 30 30 30 30 30 30 31 33 34 33 35 32 32 35 37 39 41
13 13 13 13 14 14 14 14 14 15 16 16 17 17 17 19 20 21 22 23 24 25 25 27 28 29 29 29 28 28 29 29 31 32 33 33 35 30 30 34 37 39 37
13 14 14 15 15 15 15 15 16 16 17 17 18 19 19 20 21 22 23 24 26 26 26 27 28 29 30 29 27 25 26 29 31 32 32 32 32 28 30 35 36 35 42
15 15 15 15 16 16 17 17 17 17 18 18 19 20 21 22 23 23 24 26 27 27 27 27 29 29 29 27 25 25 27 26 26 28 28 28 29 31 33 36 35 39 40
15 16 16 17 17 17 17 17 18 19 19 20 20 21 23 24 24 25 26 27 28 29 29 29 29 28 28 26 24 25 25 25 28 31 29 29 30 30 34 34 33 35 38
Wind_Direction
183 170 162 161 163 168 181 199 218 227 243 279 301 313 312 319 325 334 333 335 337 346 340 343 343 343 342 335 336 336 332 325 313 310 314 314 313 311 307 303 297 291 294
198 194 194 202 210 218 222 229 238 261 272 283 297 304 307 324 333 341 352 353 352 355 0 1 1 356 353 352 350 346 341 339 331 325 327 327 327 327 324 318 310 302 291
215 214 214 219 223 235 245 242 236 243 263 281 287 285 318 346 359 6 8 11 13 15 11 7 2 358 356 355 353 350 348 344 340 335 333 334 333 334 331 325 322 315 310
216 217 218 225 237 241 241 236 233 234 244 242 237 265 352 13 20 17 18 19 17 14 11 7 1 357 352 350 347 344 342 339 337 334 331 331 333 334 331 329 322 321 316
219 225 233 235 239 243 242 240 239 230 221 205 191 220 40 25 20 20 14 15 12 8 3 360 355 350 346 346 342 342 340 338 336 334 330 328 330 332 332 327 319 317 317
229 230 230 233 233 231 229 224 220 211 196 186 164 78 30 21 17 19 13 9 6 359 354 351 346 341 338 338 338 339 342 342 338 337 334 330 329 329 327 319 318 316 313
225 231 235 238 235 227 224 219 212 203 198 188 75 34 29 15 9 7 2 360 357 351 347 343 342 341 338 338 338 339 339 340 339 336 332 332 328 331 325 318 313 308 304
224 225 228 231 227 224 219 214 205 197 192 188 39 22 10 359 351 346 350 351 352 349 347 345 343 344 344 342 340 339 338 339 339 337 334 332 331 330 327 318 309 310 309
223 226 227 228 223 221 219 212 208 203 190 202 277 347 346 340 334 334 340 343 345 348 348 347 345 345 345 342 338 338 340 340 338 334 331 329 329 330 334 330 330 319 305
219 224 230 229 222 219 217 211 210 208 206 225 267 306 324 334 332 328 334 340 342 343 344 342 341 341 344 346 344 343 339 338 336 332 330 331 332 331 333 340 339 333 324
227 224 220 221 218 214 211 213 218 221 224 232 279 306 308 316 327 332 337 337 338 342 342 341 342 341 344 344 343 341 339 332 330 329 333 337 337 338 337 338 339 337 327
223 218 218 214 218 210 212 221 227 231 237 251 273 298 316 325 324 322 330 336 339 340 343 343 342 343 341 340 340 339 336 332 331 334 337 340 340 340 339 338 335 333 327
212 211 210 210 209 216 221 225 227 239 255 277 290 299 306 311 318 321 330 337 336 337 337 338 337 337 337 336 340 342 340 339 338 339 341 341 340 339 338 337 335 331 325
206 206 207 210 215 220 221 229 239 253 267 278 286 294 305 314 319 321 326 331 330 330 332 334 335 333 333 334 336 342 345 345 344 342 340 339 338 339 340 341 339 338 333
206 206 208 211 216 224 225 233 242 251 263 276 288 301 313 318 319 322 324 329 329 328 330 328 328 329 333 336 339 341 345 345 344 344 343 341 340 339 341 343 343 341 338
206 207 210 213 218 223 226 230 240 251 262 279 295 306 312 313 315 316 318 324 328 323 326 328 330 333 335 337 338 339 343 344 344 343 344 344 342 342 341 342 345 344 339
209 210 212 212 214 219 227 235 242 250 263 276 286 296 305 309 312 313 315 321 324 322 323 326 331 334 335 335 335 336 337 340 340 342 343 343 342 341 342 342 344 344 340
204 208 212 215 219 225 232 239 244 248 259 271 284 293 301 306 309 310 314 318 320 317 323 329 332 333 333 332 333 333 333 336 338 339 340 342 343 341 342 342 342 342 340
203 208 213 220 225 229 236 245 254 263 272 281 291 299 299 304 311 312 314 318 322 327 328 330 331 331 331 330 329 328 329 332 334 337 338 339 341 342 342 341 340 342 342
209 217 223 226 230 237 245 254 262 270 279 287 293 296 299 305 306 312 317 318 319 322 324 325 328 329 328 328 327 326 327 330 333 334 334 335 338 340 339 340 340 341 342
223 225 230 234 240 248 256 264 273 281 287 292 298 303 307 311 317 317 317 318 321 324 325 326 329 328 329 329 327 326 325 327 330 330 330 331 333 334 336 338 341 343 338
229 233 238 245 250 257 264 270 277 284 290 294 296 299 300 305 309 312 316 319 322 324 324 324 325 327 328 328 326 324 323 326 328 327 327 328 330 329 332 335 337 340 332
238 243 248 253 258 262 268 274 280 285 289 293 296 299 302 305 308 311 314 316 318 320 321 321 323 325 325 324 323 323 322 324 324 324 323 323 326 328 332 336 340 333 327
247 251 254 256 261 267 272 275 279 283 287 292 297 301 304 306 309 311 313 315 316 317 320 321 321 322 322 322 323 324 319 320 319 320 319 317 319 324 328 333 333 323 324
252 256 259 262 265 269 273 277 281 285 289 294 298 302 306 308 310 310 311 312 314 316 319 320 319 320 321 319 320 320 320 323 320 321 318 316 319 325 325 324 324 324 325
257 260 263 266 269 272 276 280 283 286 292 296 300 303 305 306 308 309 311 312 314 316 318 319 320 318 316 315 316 317 317 320 325 329 321 314 312 315 322 323 321 323 323